| time (UTC) | temp F | wind direction | speed MPH | gust MPH | rain 1hr in | rain 24hr in | rain mn in | humidity % | barometer mb |
| 20260507144236 | 53 | 186 | 10.0 | 22.0 | 0.00 | 0.03 | 0.03 | 94 | 1006.2 |
| 20260507140040 | 53 | 195 | 9.0 | 18.0 | 0.00 | 0.03 | 0.03 | 94 | 1006.4 |
| 20260507132019 | 53 | 207 | 6.0 | 23.0 | 0.00 | 0.03 | 0.03 | 94 | 1006.6 |
| 20260507124031 | 53 | 207 | 5.0 | 19.0 | 0.00 | 0.03 | 0.03 | 94 | 1006.9 |
| 20260507115713 | 53 | 200 | 8.0 | 19.0 | 0.00 | 0.03 | 0.03 | 94 | 1007.2 |
| 20260507111949 | 53 | 195 | 7.0 | 23.0 | 0.00 | 0.03 | 0.03 | 93 | 1007.5 |
| 20260507103855 | 53 | 167 | 7.0 | 20.0 | 0.00 | 0.03 | 0.03 | 93 | 1007.7 |
| 20260507095627 | 53 | 179 | 5.0 | 20.0 | 0.01 | 0.03 | 0.03 | 94 | 1007.5 |
| 20260507090937 | 53 | 141 | 9.0 | 18.0 | 0.01 | 0.03 | 0.03 | 93 | 1007.8 |
| 20260507083053 | 53 | 180 | 4.0 | 19.0 | 0.01 | 0.03 | 0.03 | 93 | 1007.5 |
| 20260507075541 | 53 | 194 | 8.0 | 18.0 | 0.01 | 0.03 | 0.03 | 93 | 1008.3 |
| 20260507071700 | 53 | 162 | 8.0 | 14.0 | 0.00 | 0.02 | 0.02 | 93 | 1008.6 |
| 20260507063714 | 54 | 205 | 5.0 | 12.0 | 0.00 | 0.02 | 0.02 | 92 | 1008.4 |
| 20260507055832 | 54 | 198 | 4.0 | 19.0 | 0.00 | 0.02 | 0.02 | 91 | 1008.6 |
| 20260507051954 | 55 | 186 | 4.0 | 17.0 | 0.00 | 0.02 | 0.02 | 89 | 1008.7 |
| 20260507044600 | 55 | 199 | 6.0 | 16.0 | 0.00 | 0.02 | 0.02 | 88 | 1008.5 |
| 20260507040522 | 55 | 101 | 5.0 | 17.0 | 0.00 | 0.02 | 0.02 | 88 | 1008.5 |
| 20260507033034 | 55 | 183 | 7.0 | 16.0 | 0.00 | 0.02 | 0.02 | 88 | 1008.8 |
| 20260507025359 | 55 | 200 | 5.0 | 15.0 | 0.00 | 0.02 | 0.02 | 88 | 1008.9 |
| 20260507022003 | 55 | 184 | 5.0 | 18.0 | 0.00 | 0.02 | 0.02 | 88 | 1008.9 |
| 20260507015413 | 55 | 189 | 5.0 | 16.0 | 0.00 | 0.02 | 0.02 | 87 | 1009.0 |
| 20260507011934 | 55 | 196 | 5.0 | 23.0 | 0.00 | 0.02 | 0.02 | 87 | 1009.0 |
| 20260507004909 | 55 | 190 | 12.0 | 24.0 | 0.00 | 0.02 | 0.02 | 86 | 1008.4 |
| 20260507001548 | 56 | 231 | 5.0 | 18.0 | 0.00 | 0.02 | 0.02 | 86 | 1008.7 |
| 20260506235517 | 56 | 189 | 6.0 | 17.0 | 0.00 | 0.02 | 0.02 | 85 | 1008.8 |
| 20260506233633 | 56 | 233 | 7.0 | 25.0 | 0.00 | 0.02 | 0.02 | 86 | 1008.8 |
| 20260506231748 | 56 | 205 | 8.0 | 25.0 | 0.00 | 0.02 | 0.02 | 85 | 1008.8 |
| 20260506230121 | 56 | 221 | 7.0 | 22.0 | 0.00 | 0.02 | 0.02 | 86 | 1009.1 |
| 20260506224016 | 56 | 209 | 4.0 | 18.0 | 0.00 | 0.02 | 0.02 | 86 | 1009.0 |
| 20260506222136 | 56 | 175 | 7.0 | 20.0 | 0.00 | 0.02 | 0.02 | 85 | 1009.2 |
| 20260506220048 | 56 | 200 | 7.0 | 21.0 | 0.00 | 0.02 | 0.02 | 85 | 1009.3 |
| 20260506214250 | 56 | 184 | 7.0 | 23.0 | 0.00 | 0.02 | 0.02 | 85 | 1009.3 |
| 20260506212407 | 57 | 176 | 9.0 | 28.0 | 0.00 | 0.02 | 0.02 | 84 | 1009.4 |
| 20260506210523 | 57 | 180 | 5.0 | 18.0 | 0.00 | 0.02 | 0.02 | 84 | 1009.4 |
| 20260506204547 | 58 | 165 | 10.0 | 19.0 | 0.00 | 0.02 | 0.02 | 82 | 1009.4 |
| 20260506202539 | 57 | 168 | 5.0 | 22.0 | 0.00 | 0.02 | 0.02 | 84 | 1009.7 |
| 20260506200435 | 57 | 215 | 8.0 | 18.0 | 0.00 | 0.02 | 0.02 | 84 | 1009.9 |
| 20260506194556 | 57 | 192 | 6.0 | 24.0 | 0.00 | 0.02 | 0.02 | 85 | 1010.1 |
| 20260506192455 | 56 | 209 | 6.0 | 23.0 | 0.00 | 0.02 | 0.02 | 85 | 1010.1 |
| 20260506190333 | 56 | 167 | 8.0 | 18.0 | 0.00 | 0.02 | 0.02 | 86 | 1010.3 |
| 20260506184453 | 56 | 161 | 6.0 | 18.0 | 0.00 | 0.02 | 0.02 | 86 | 1010.3 |
| 20260506182722 | 56 | 210 | 5.0 | 14.0 | 0.00 | 0.02 | 0.02 | 85 | 1010.2 |
| 20260506180836 | 57 | 203 | 5.0 | 11.0 | 0.00 | 0.02 | 0.02 | 84 | 1010.2 |
| 20260506175111 | 57 | 185 | 5.0 | 15.0 | 0.00 | 0.02 | 0.02 | 83 | 1010.8 |
| 20260506173231 | 58 | 183 | 6.0 | 12.0 | 0.00 | 0.02 | 0.02 | 82 | 1011.0 |
| 20260506171350 | 59 | 151 | 5.0 | 17.0 | 0.00 | 0.02 | 0.02 | 80 | 1011.1 |
| 20260506165140 | 60 | 188 | 7.0 | 15.0 | 0.00 | 0.02 | 0.02 | 80 | 1010.9 |
| 20260506163141 | 59 | 168 | 7.0 | 16.0 | 0.00 | 0.02 | 0.02 | 80 | 1010.7 |
| 20260506161541 | 58 | 158 | 3.0 | 11.0 | 0.00 | 0.02 | 0.02 | 82 | 1010.7 |
| 20260506155642 | 58 | 193 | 6.0 | 14.0 | 0.00 | 0.02 | 0.02 | 81 | 1011.0 |
| 20260506153800 | 58 | 185 | 2.0 | 11.0 | 0.00 | 0.02 | 0.02 | 83 | 1011.0 |
| 20260506151808 | 57 | 189 | 4.0 | 12.0 | 0.00 | 0.02 | 0.02 | 83 | 1011.0 |
| 20260506150047 | 58 | 178 | 3.0 | 9.0 | 0.00 | 0.02 | 0.02 | 82 | 1010.9 |